Time,TemperatureF,DewpointF,PressureIn,WindDirection,WindDirectionDegrees,WindSpeedMPH,WindSpeedGustMPH,Humidity,HourlyPrecipIn,Conditions,Clouds,dailyrainin,SoftwareType,DateUTC
2013-03-26 00:01:00,49.1,43.0,30.00,West,277,3.0,9.0,79,0.00,,,0.00,weatherlink.com 1.10,2013-03-26 07:01:00,
2013-03-26 00:16:00,49.2,43.0,30.00,West,279,2.0,6.0,80,0.00,,,0.00,weatherlink.com 1.10,2013-03-26 07:16:00,
2013-03-26 00:31:00,49.4,43.0,30.00,NNW,331,1.0,5.0,79,0.00,,,0.00,weatherlink.com 1.10,2013-03-26 07:31:00,
2013-03-26 00:46:00,49.3,43.0,30.00,NW,304,1.0,5.0,80,0.00,,,0.00,weatherlink.com 1.10,2013-03-26 07:46:00,
2013-03-26 01:01:00,49.1,44.0,30.00,NW,307,1.0,6.0,81,0.00,,,0.00,weatherlink.com 1.10,2013-03-26 08:01:00,
2013-03-26 01:31:00,48.8,43.0,30.01,West,274,0.0,5.0,80,0.00,,,0.00,weatherlink.com 1.10,2013-03-26 08:31:00,
2013-03-26 02:01:00,48.7,43.0,30.01,West,267,2.0,6.0,80,0.00,,,0.00,weatherlink.com 1.10,2013-03-26 09:01:00,
2013-03-26 02:16:00,48.5,43.0,30.00,West,261,0.0,3.0,80,0.00,,,0.00,weatherlink.com 1.10,2013-03-26 09:16:00,
2013-03-26 02:31:00,48.3,43.0,30.00,West,261,0.0,2.0,81,0.00,,,0.00,weatherlink.com 1.10,2013-03-26 09:31:00,
2013-03-26 02:46:00,48.1,43.0,30.00,West,261,0.0,2.0,81,0.00,,,0.00,weatherlink.com 1.10,2013-03-26 09:46:00,
2013-03-26 03:01:00,47.9,43.0,29.99,West,261,0.0,2.0,82,0.00,,,0.00,weatherlink.com 1.10,2013-03-26 10:01:00,
2013-03-26 03:31:00,48.1,43.0,29.98,West,261,0.0,1.0,82,0.00,,,0.00,weatherlink.com 1.10,2013-03-26 10:31:00,
2013-03-26 03:46:00,48.2,43.0,29.99,West,261,0.0,1.0,82,0.00,,,0.00,weatherlink.com 1.10,2013-03-26 10:46:00,
2013-03-26 04:16:00,48.3,43.0,29.98,West,261,0.0,1.0,82,0.00,,,0.00,weatherlink.com 1.10,2013-03-26 11:16:00,
2013-03-26 04:31:00,48.5,43.0,29.98,West,261,2.0,2.0,82,0.00,,,0.00,weatherlink.com 1.10,2013-03-26 11:31:00,
2013-03-26 05:01:00,48.8,43.0,29.98,West,268,1.0,4.0,81,0.00,,,0.00,weatherlink.com 1.10,2013-03-26 12:01:00,
2013-03-26 05:16:00,48.8,43.0,29.98,West,268,0.0,2.0,81,0.00,,,0.00,weatherlink.com 1.10,2013-03-26 12:16:00,
2013-03-26 05:31:00,48.7,43.0,29.98,West,268,1.0,2.0,81,0.00,,,0.00,weatherlink.com 1.10,2013-03-26 12:31:00,
2013-03-26 05:46:00,48.2,43.0,29.98,West,268,0.0,3.0,81,0.00,,,0.00,weatherlink.com 1.10,2013-03-26 12:46:00,
2013-03-26 06:01:00,47.7,43.0,29.98,West,268,1.0,1.0,83,0.00,,,0.00,weatherlink.com 1.10,2013-03-26 13:01:00,
2013-03-26 06:16:00,47.6,43.0,29.98,West,268,0.0,2.0,83,0.00,,,0.00,weatherlink.com 1.10,2013-03-26 13:16:00,
2013-03-26 06:31:00,47.4,43.0,29.98,West,268,0.0,3.0,84,0.00,,,0.00,weatherlink.com 1.10,2013-03-26 13:31:00,
2013-03-26 06:46:00,47.2,43.0,29.98,WNW,284,2.0,4.0,84,0.00,,,0.00,weatherlink.com 1.10,2013-03-26 13:46:00,
2013-03-26 07:01:00,47.5,43.0,29.99,WNW,294,0.0,3.0,84,0.00,,,0.00,weatherlink.com 1.10,2013-03-26 14:01:00,
2013-03-26 07:16:00,47.6,43.0,29.99,WNW,294,0.0,3.0,84,0.00,,,0.00,weatherlink.com 1.10,2013-03-26 14:16:00,
2013-03-26 07:31:00,47.5,43.0,29.99,WNW,294,0.0,1.0,84,0.00,,,0.00,weatherlink.com 1.10,2013-03-26 14:31:00,
2013-03-26 07:46:00,47.3,43.0,30.00,WNW,294,0.0,1.0,85,0.00,,,0.00,weatherlink.com 1.10,2013-03-26 14:46:00,
2013-03-26 08:01:00,47.9,44.0,30.00,WNW,294,1.0,1.0,85,0.00,,,0.00,weatherlink.com 1.10,2013-03-26 15:01:00,
2013-03-26 08:16:00,48.7,44.0,30.00,WNW,294,0.0,1.0,83,0.00,,,0.00,weatherlink.com 1.10,2013-03-26 15:16:00,
2013-03-26 08:31:00,49.4,44.0,30.00,SSW,205,2.0,3.0,80,0.00,,,0.00,weatherlink.com 1.10,2013-03-26 15:31:00,
2013-03-26 08:46:00,49.6,43.0,30.00,South,188,1.0,3.0,78,0.00,,,0.00,weatherlink.com 1.10,2013-03-26 15:46:00,
2013-03-26 09:01:00,50.4,43.0,30.00,South,177,1.0,3.0,77,0.00,,,0.00,weatherlink.com 1.10,2013-03-26 16:01:00,
2013-03-26 09:16:00,52.5,44.0,30.00,SSE,167,0.0,2.0,73,0.00,,,0.00,weatherlink.com 1.10,2013-03-26 16:16:00,
2013-03-26 09:32:00,53.3,44.0,30.00,ESE,111,2.0,4.0,70,0.00,,,0.00,weatherlink.com 1.10,2013-03-26 16:32:00,
2013-03-26 10:02:00,54.7,44.0,30.00,NW,310,2.0,3.0,68,0.00,,,0.00,weatherlink.com 1.10,2013-03-26 17:02:00,
2013-03-26 10:17:00,54.6,44.0,30.00,NW,306,2.0,5.0,68,0.00,,,0.00,weatherlink.com 1.10,2013-03-26 17:17:00,
2013-03-26 10:32:00,55.5,44.0,30.00,NE,51,3.0,4.0,66,0.00,,,0.00,weatherlink.com 1.10,2013-03-26 17:32:00,
2013-03-26 11:02:00,57.4,45.0,30.00,NNE,32,1.0,6.0,64,0.00,,,0.00,weatherlink.com 1.10,2013-03-26 18:02:00,
2013-03-26 11:17:00,57.6,45.0,30.00,NNE,30,3.0,5.0,64,0.00,,,0.00,weatherlink.com 1.10,2013-03-26 18:17:00,
2013-03-26 11:32:00,57.5,46.0,29.99,North,5,3.0,8.0,66,0.00,,,0.00,weatherlink.com 1.10,2013-03-26 18:32:00,
2013-03-26 11:47:00,57.5,47.0,29.99,ENE,67,2.0,10.0,67,0.00,,,0.00,weatherlink.com 1.10,2013-03-26 18:47:00,
2013-03-26 12:02:00,58.0,47.0,29.99,NE,44,4.0,7.0,66,0.00,,,0.00,weatherlink.com 1.10,2013-03-26 19:02:00,
2013-03-26 12:17:00,57.9,46.0,29.99,ENE,77,3.0,7.0,65,0.00,,,0.00,weatherlink.com 1.10,2013-03-26 19:17:00,
2013-03-26 12:32:00,58.8,47.0,29.99,NNW,345,5.0,7.0,64,0.00,,,0.00,weatherlink.com 1.10,2013-03-26 19:32:00,
2013-03-26 12:47:00,59.2,46.0,29.98,WNW,300,5.0,9.0,62,0.00,,,0.00,weatherlink.com 1.10,2013-03-26 19:47:00,
2013-03-26 13:02:00,58.4,47.0,29.98,NE,49,6.0,8.0,65,0.00,,,0.00,weatherlink.com 1.10,2013-03-26 20:02:00,
2013-03-26 13:17:00,59.7,47.0,29.98,ENE,59,4.0,9.0,64,0.00,,,0.00,weatherlink.com 1.10,2013-03-26 20:17:00,
2013-03-26 13:32:00,60.4,47.0,29.98,NNW,338,5.0,7.0,62,0.00,,,0.00,weatherlink.com 1.10,2013-03-26 20:32:00,
2013-03-26 13:47:00,61.3,48.0,29.97,NNE,15,3.0,10.0,61,0.00,,,0.00,weatherlink.com 1.10,2013-03-26 20:47:00,
2013-03-26 14:02:00,61.2,46.0,29.97,North,5,4.0,9.0,58,0.00,,,0.00,weatherlink.com 1.10,2013-03-26 21:02:00,
2013-03-26 14:17:00,61.2,46.0,29.96,NNW,344,4.0,8.0,58,0.00,,,0.00,weatherlink.com 1.10,2013-03-26 21:17:00,
2013-03-26 14:32:00,61.3,46.0,29.96,NW,323,3.0,9.0,58,0.00,,,0.00,weatherlink.com 1.10,2013-03-26 21:32:00,
2013-03-26 14:47:00,62.7,46.0,29.95,NNE,14,4.0,7.0,55,0.00,,,0.00,weatherlink.com 1.10,2013-03-26 21:47:00,
2013-03-26 15:02:00,63.4,47.0,29.95,NE,43,7.0,7.0,55,0.00,,,0.00,weatherlink.com 1.10,2013-03-26 22:02:00,
2013-03-26 15:17:00,64.0,47.0,29.94,North,355,2.0,8.0,55,0.00,,,0.00,weatherlink.com 1.10,2013-03-26 22:17:00,
2013-03-26 15:32:00,65.0,48.0,29.94,North,350,3.0,10.0,54,0.00,,,0.00,weatherlink.com 1.10,2013-03-26 22:32:00,
2013-03-26 15:47:00,65.1,47.0,29.93,NNE,19,4.0,8.0,53,0.00,,,0.00,weatherlink.com 1.10,2013-03-26 22:47:00,
2013-03-26 16:02:00,64.7,46.0,29.93,NE,44,8.0,10.0,52,0.00,,,0.00,weatherlink.com 1.10,2013-03-26 23:02:00,
2013-03-26 16:17:00,64.1,46.0,29.92,NNE,32,2.0,9.0,53,0.00,,,0.00,weatherlink.com 1.10,2013-03-26 23:17:00,
2013-03-26 16:32:00,64.0,46.0,29.92,NNW,333,3.0,9.0,53,0.00,,,0.00,weatherlink.com 1.10,2013-03-26 23:32:00,
2013-03-26 16:48:00,64.3,47.0,29.92,NE,44,5.0,9.0,53,0.00,,,0.00,weatherlink.com 1.10,2013-03-26 23:48:00,
2013-03-26 17:03:00,65.7,47.0,29.92,West,259,3.0,8.0,51,0.00,,,0.00,weatherlink.com 1.10,2013-03-27 00:03:00,
2013-03-26 17:18:00,65.1,45.0,29.92,WSW,256,5.0,10.0,49,0.00,,,0.00,weatherlink.com 1.10,2013-03-27 00:18:00,
2013-03-26 17:33:00,64.6,45.0,29.91,West,269,4.0,9.0,49,0.00,,,0.00,weatherlink.com 1.10,2013-03-27 00:33:00,
2013-03-26 17:48:00,65.2,45.0,29.91,West,267,2.0,5.0,49,0.00,,,0.00,weatherlink.com 1.10,2013-03-27 00:48:00,
2013-03-26 18:03:00,64.7,45.0,29.92,NW,311,2.0,7.0,50,0.00,,,0.00,weatherlink.com 1.10,2013-03-27 01:03:00,
2013-03-26 18:18:00,63.6,45.0,29.92,NW,315,2.0,7.0,51,0.00,,,0.00,weatherlink.com 1.10,2013-03-27 01:18:00,
2013-03-26 18:33:00,62.3,44.0,29.92,NW,326,2.0,7.0,52,0.00,,,0.00,weatherlink.com 1.10,2013-03-27 01:33:00,
2013-03-26 18:48:00,60.6,44.0,29.92,NW,315,2.0,7.0,55,0.00,,,0.00,weatherlink.com 1.10,2013-03-27 01:48:00,
2013-03-26 19:03:00,59.8,44.0,29.92,NNW,342,1.0,6.0,57,0.00,,,0.00,weatherlink.com 1.10,2013-03-27 02:03:00,
2013-03-26 19:18:00,59.0,44.0,29.93,NNW,348,3.0,6.0,57,0.00,,,0.00,weatherlink.com 1.10,2013-03-27 02:18:00,
2013-03-26 19:33:00,58.4,43.0,29.93,NW,323,2.0,4.0,57,0.00,,,0.00,weatherlink.com 1.10,2013-03-27 02:33:00,
2013-03-26 19:48:00,58.1,42.0,29.93,NW,321,3.0,5.0,56,0.00,,,0.00,weatherlink.com 1.10,2013-03-27 02:48:00,
2013-03-26 20:03:00,57.5,42.0,29.93,WNW,298,4.0,5.0,56,0.00,,,0.00,weatherlink.com 1.10,2013-03-27 03:03:00,
2013-03-26 20:18:00,56.7,42.0,29.93,NW,316,0.0,4.0,58,0.00,,,0.00,weatherlink.com 1.10,2013-03-27 03:18:00,
2013-03-26 20:33:00,56.3,42.0,29.94,NW,316,0.0,1.0,59,0.00,,,0.00,weatherlink.com 1.10,2013-03-27 03:33:00,
2013-03-26 20:48:00,55.7,42.0,29.95,North,360,1.0,5.0,60,0.00,,,0.00,weatherlink.com 1.10,2013-03-27 03:48:00,
2013-03-26 21:03:00,54.6,43.0,29.95,NNW,344,0.0,2.0,64,0.00,,,0.00,weatherlink.com 1.10,2013-03-27 04:03:00,
2013-03-26 21:18:00,54.1,42.0,29.95,NNW,344,0.0,1.0,65,0.00,,,0.00,weatherlink.com 1.10,2013-03-27 04:18:00,
2013-03-26 21:33:00,53.9,43.0,29.95,NNW,344,0.0,0.0,66,0.00,,,0.00,weatherlink.com 1.10,2013-03-27 04:33:00,
2013-03-26 21:48:00,53.7,43.0,29.96,NNW,344,0.0,1.0,67,0.00,,,0.00,weatherlink.com 1.10,2013-03-27 04:48:00,
2013-03-26 22:03:00,53.6,44.0,29.96,NNW,344,0.0,1.0,69,0.00,,,0.00,weatherlink.com 1.10,2013-03-27 05:03:00,
2013-03-26 22:18:00,53.7,44.0,29.96,NNW,344,0.0,0.0,69,0.00,,,0.00,weatherlink.com 1.10,2013-03-27 05:18:00,
2013-03-26 22:33:00,53.7,44.0,29.96,NNW,344,0.0,1.0,70,0.00,,,0.00,weatherlink.com 1.10,2013-03-27 05:33:00,
2013-03-26 22:48:00,53.2,44.0,29.97,NNW,344,0.0,0.0,72,0.00,,,0.00,weatherlink.com 1.10,2013-03-27 05:48:00,
2013-03-26 23:03:00,52.7,44.0,29.97,NNW,344,0.0,1.0,72,0.00,,,0.00,weatherlink.com 1.10,2013-03-27 06:03:00,
2013-03-26 23:18:00,52.1,43.0,29.97,NNW,344,0.0,1.0,72,0.00,,,0.00,weatherlink.com 1.10,2013-03-27 06:18:00,
2013-03-26 23:33:00,51.7,43.0,29.97,NNW,344,0.0,1.0,73,0.00,,,0.00,weatherlink.com 1.10,2013-03-27 06:33:00,
2013-03-26 23:48:00,51.7,44.0,29.97,NNW,340,0.0,3.0,76,0.00,,,0.00,weatherlink.com 1.10,2013-03-27 06:48:00,